Regional Weather Roundup
Issued by NWS

Home | Current Version | Previous Version | Graphics & Text | Print | Product List | Glossary On
Versions: 1 2 3 4 5 6 7 8 9 10 11 12 13 14 15 16 17 18 19 20 21 22 23 24 25 26 27 28 29 30 31 32 33 34 35 36 37 38 39 40 41 42 43 44 45 46 47 48 49 50
000
ASUS43 KLSX 021607
RWRMO

WEATHER SUMMARY FOR MISSOURI
NATIONAL WEATHER SERVICE SPRINGFIELD MO
1100 AM CDT TUE SEP 02 2014

NOTE: "FAIR" INDICATES FEW OR NO CLOUDS BELOW 12,000 FEET WITH NO
       SIGNIFICANT WEATHER AND/OR OBSTRUCTIONS TO VISIBILITY.
       CURRENT SKY AND/OR WEATHER CONDITIONS ARE NOT AVAILABLE FOR
       CHILLICOTHE AND FARMINGTON.

MOZ001>031-035>038-043-044-053-054-021700-
...NORTHERN AND WESTERN MISSOURI...

CITY           SKY/WX    TMP DP  RH WIND       PRES   REMARKS
KANSAS CTY INT PTSUNNY   74  68  81 CALM      30.00S
KANSAS C DTWN  CLOUDY    75  68  78 NW3       29.99S
LEE`S SUMMIT   CLOUDY    72  68  87 CALM      30.01S
ST JOSEPH      SUNNY     73  66  78 CALM      30.00R
CHILLICOTHE      N/A     76  67  73 S5        29.99R
KIRKSVILLE     PTSUNNY   75  65  70 W5        29.99R

$$
MOZ066>068-077>081-088>096-101>105-021700-
...SOUTHWEST MISSOURI...

CITY           SKY/WX    TMP DP  RH WIND       PRES   REMARKS
SPRINGFIELD    CLOUDY    68  65  90 SW7       30.03R
JOPLIN         CLOUDY    67  66  97 S8        30.02S

$$
MOZ032>034-039>042-045>050-055>058-069>072-021700-
...CENTRAL MISSOURI...

CITY           SKY/WX    TMP DP  RH WIND       PRES   REMARKS
COLUMBIA       CLOUDY    73  70  90 W7        30.00R
JEFFERSON CITY CLOUDY    74  69  85 W7        29.99R
ROLLA          CLOUDY    71  65  81 SW9       30.00R
SEDALIA        CLOUDY    74  71  91 W5        30.01R
WHITEMAN AFB   PTSUNNY   73  71  92 W6        30.00R
OSAGE BEACH    CLOUDY    72  64  78 W7        30.02R

$$
MOZ051-052-059>065-021700-
...EAST CENTRAL MISSOURI...

CITY           SKY/WX    TMP DP  RH WIND       PRES   REMARKS
ST LOUIS INTL  CLOUDY    75  70  84 W7        29.97R
SPIRIT OF STL  CLOUDY    74  70  87 W8        29.96R
ST CHARLES     CLOUDY    74  69  85 W8        29.96R

$$
MOZ072>076-082>087-097>100-106>115-021700-
...SOUTH CENTRAL AND SOUTHEAST MISSOURI...

CITY           SKY/WX    TMP DP  RH WIND       PRES   REMARKS
CAPE GIRARDEAU CLOUDY    79  71  76 NW6       29.97R
FARMINGTON     CLOUDY    73  64  73 W8        30.00S
POPLAR BLUFF   CLOUDY    76  66  71 SW8       29.96F
WEST PLAINS    CLOUDY    69  65  86 W6        30.02S

$$


USA.gov is the U.S. government's official web portal to all federal, state and local government web resources and services.